Regional Weather Roundup
Issued by NWS Huntsville, AL

Home | Current Version | Previous Version | Text Only | Print | Product List | Glossary On
Versions: 1 2 3 4 5 6 7 8 9 10 11 12 13 14 15 16 17 18 19 20 21 22 23 24 25 26 27 28 29 30 31 32 33 34 35 36 37 38 39 40 41 42 43 44 45 46 47 48 49 50
120
ASUS44 KHUN 191410
RWRHUN

WEATHER ROUNDUP FOR THE TENNESSEE VALLEY
NATIONAL WEATHER SERVICE HUNTSVILLE AL
800 AM CST SUN NOV 19 2017

ALZ001>004-191500-
NORTHWEST ALABAMA

CITY           SKY/WX    TMP DP  RH WIND       PRES   REMARKS
COURTLAND HCN    N/A     41 N/A N/A W5          N/A
RUSSELLVILLE     N/A     39 N/A N/A MISG        N/A
SHOALS AIRPORT SUNNY     42  32  67 N10       30.16R
SHOALS TVA RES   N/A     39 N/A N/A MISG        N/A
$$

ALZ005>007-016-191500-
NORTH CENTRAL ALABAMA

CITY           SKY/WX    TMP DP  RH WIND       PRES   REMARKS
CULLMAN AG STN   N/A     41 N/A N/A CALM        N/A
DECATUR AP     SUNNY     42  36  79 NW9       30.13R
HUNTSVILLE AP  MOSUNNY   43  36  76 W7        30.11R
MERIDIANVILLE  SUNNY     41  34  75 N3        30.10R
REDSTONE ARSN  SUNNY     43  34  71 N8        30.10R
VINEMONT AP    FAIR      42  33  71 NW3       30.12R
$$

ALZ008>010-191500-
NORTHEAST ALABAMA

CITY           SKY/WX    TMP DP  RH WIND       PRES   REMARKS
ALBERTVILLE    MOSUNNY   41  37  87 N10G16    30.07R
FORT PAYNE     MOSUNNY   41  30  65 NW7G16    30.06R
SCOTTSBORO AP  SUNNY     45  32  61 N7        30.09R
SCOTTSBORO HCN   N/A     43 N/A N/A MISG        N/A
VALLEY HEAD      N/A     41 N/A N/A MISG        N/A
$$

TNZ076-096-097-191500-
SOUTHEASTERN MIDDLE TENNESSEE

CITY           SKY/WX    TMP DP  RH WIND       PRES   REMARKS
TULLAHOMA      CLOUDY    39  32  75 NW12      30.08R WCI  32
WINCHESTER     CLOUDY    39  30  70 NW7       30.09R WCI  34
$$

...SURROUNDING SITES...

CITY           SKY/WX    TMP DP  RH WIND       PRES   REMARKS
ATLANTA        MOSUNNY   45  34  65 N15G30    30.01R
ANNISTON       PTSUNNY   47  34  60 NW5       30.09R
BIRMINGHAM     SUNNY     44  34  67 NW9       30.14R
CHATTANOOGA    PTSUNNY   45  30  55 N7        30.08R
CORINTH        FAIR      41  34  75 NW8       30.19R
DALTON         CLOUDY    43  34  70 NW10      30.06R
GADSDEN        PTSUNNY   46  36  68 NW9       30.10R
GOLDEN TRNGL   SUNNY     43  36  76 NW9       30.20R
HALEYVILLE     FAIR      40  36  86 N8        30.15R WCI  34
JACKSON TN     SUNNY     40  33  76 NW7       30.20R
MEMPHIS        SUNNY     42  33  70 NW9       30.22R
NASHVILLE      MOSUNNY   41  29  62 NW13      30.13R
ROME           CLOUDY    46  35  65 NW5       30.05R
SAVANNAH       SUNNY     41  32  70 NW8G18    30.18R
SELMER         SUNNY     39  28  65 VRB5G12   30.18R
TUPELO         SUNNY     42  33  70 NW12G18   30.20R
TUSCALOOSA     LGT RAIN  45  38  76 NW6       30.17R
$$

...GULF COAST WEATHER...

CITY           SKY/WX    TMP DP  RH WIND       PRES   REMARKS
GULFPORT       SUNNY     50  36  58 N13G24    30.16R
PASCAGOULA     SUNNY     50  36  58 N20G26    30.15R
MOBILE         MOSUNNY   49  37  63 N16G29    30.16R
GULF SHORES    SUNNY     50  39  66 N13G22    30.12R
PENSACOLA      SUNNY     52  39  61 N15G26    30.09R
DESTIN         SUNNY     54  40  59 N20G25    30.07R
PANAMA CITY    PTSUNNY   55  45  69 N16G24    30.02R
APPALACHICOLA  MOSUNNY   60  52  74 N16G25    29.97R
$$





USA.gov is the U.S. government's official web portal to all federal, state and local government web resources and services.